Location: Lynch Observatory
(39.9540°N, 75.1861°W)
Time: 11:00:30
(UTC-04:00)

DOVE 4 - Pass Details

Date: 25 April 2024
Orbit: 581 x 778 km, 97.7° (Epoch: 26 May)

Event Time Altitude Azimuth Distance (km) Brightness Sun altitude
Rises 21:29:54 0° 33° (NNE) 2,933 ? -17.8°
Reaches altitude 10° 21:32:53 10° 55° (NE) 2,058 ? -18.3°
Enters shadow 21:33:39 13° 64° (ENE) 1,901 ? -18.4°
